This is the latest recevied weather packets stored in our database for station/object WA6TJQ. If no packets are shown the sender has not sent any weather packets the latest 10 day(s).
| Time | Temp. | Humidity | Pressure | Rain* | Wind** | Luminosity | Snow |
|---|---|---|---|---|---|---|---|
| 1777681032 | 17.22° C | 38% | 1010.3 hPa | 0 mm | - | - | - |
| 1777680731 | 17.22° C | 39% | 1010.2 hPa | 0 mm | - | - | - |
| 1777680431 | 17.22° C | 38% | 1010.3 hPa | 0 mm | - | - | - |
| 1777680131 | 17.22° C | 38% | 1010.3 hPa | 0 mm | - | - | - |
| 1777679831 | 17.22° C | 40% | 1010.4 hPa | 0 mm | - | - | - |
| 1777679531 | 17.78° C | 39% | 1010.4 hPa | 0 mm | - | - | - |
| 1777679231 | 17.78° C | 40% | 1010.4 hPa | 0 mm | - | - | - |
| 1777678932 | 17.78° C | 40% | 1010.4 hPa | 0 mm | - | - | - |
| 1777678631 | 17.78° C | 41% | 1010.5 hPa | 0 mm | - | - | - |
| 1777678331 | 17.78° C | 39% | 1010.3 hPa | 0 mm | - | - | - |
| 1777678031 | 17.78° C | 38% | 1010.3 hPa | 0 mm | - | - | - |
| 1777677731 | 18.33° C | 40% | 1010.4 hPa | 0 mm | - | - | - |
| 1777677431 | 18.33° C | 40% | 1010.4 hPa | 0 mm | - | - | - |
| 1777677131 | 18.33° C | 40% | 1010.4 hPa | 0 mm | - | - | - |
| 1777676831 | 18.89° C | 42% | 1010.5 hPa | 0 mm | - | - | - |
| 1777676531 | 18.89° C | 42% | 1010.5 hPa | 0 mm | - | - | - |
| 1777676231 | 18.89° C | 43% | 1010.5 hPa | 0 mm | - | - | - |
| 1777675931 | 18.89° C | 42% | 1010.6 hPa | 0 mm | - | - | - |
| 1777675631 | 19.44° C | 41% | 1010.7 hPa | 0 mm | - | - | - |
| 1777675331 | 19.44° C | 39% | 1010.7 hPa | 0 mm | - | - | - |
| 1777675030 | 20° C | 37% | 1010.6 hPa | 0 mm | - | - | - |
| 1777674730 | 20° C | 39% | 1010.7 hPa | 0 mm | - | - | - |
| 1777674431 | 20.56° C | 36% | 1010.7 hPa | 0 mm | - | - | - |
| 1777674131 | 20.56° C | 38% | 1010.8 hPa | 0 mm | - | - | - |
| 1777673830 | 20.56° C | 38% | 1010.8 hPa | 0 mm | - | - | - |
* Rain latest hour (hover to see other rain measurements)
** Current wind speed in m/s (hover to see current wind gust speed)